Time,TemperatureF,DewpointF,PressureIn,WindDirection,WindDirectionDegrees,WindSpeedMPH,WindSpeedGustMPH,Humidity,HourlyPrecipIn,Conditions,Clouds,dailyrainin,SolarRadiationWatts/m^2,SoftwareType,DateUTC
2013-11-03 00:21:00,37.0,33.0,-100.00,West,267,8.0,22.0,85,0.00,,,0.04,0.000000,,2013-11-03 00:21:00,
2013-11-03 00:33:00,37.0,33.0,-100.00,West,267,8.0,22.0,85,0.00,,,0.04,0.000000,,2013-11-03 00:33:00,
2013-11-03 00:42:00,37.0,33.0,-100.00,West,267,8.0,22.0,85,0.00,,,0.04,0.000000,,2013-11-03 00:42:00,
2013-11-03 00:52:00,37.0,33.0,-100.00,West,267,8.0,22.0,85,0.00,,,0.04,0.000000,,2013-11-03 00:52:00,
2013-11-03 01:21:00,34.0,32.0,-100.00,SSW,213,2.0,11.0,91,0.00,,,0.04,0.000000,,2013-11-03 01:21:00,
2013-11-03 01:32:00,34.0,32.0,-100.00,SSW,213,2.0,11.0,91,0.00,,,0.04,0.000000,,2013-11-03 01:32:00,
2013-11-03 01:42:00,34.0,32.0,-100.00,SSW,213,2.0,11.0,91,0.00,,,0.04,0.000000,,2013-11-03 01:42:00,
2013-11-03 01:52:00,34.0,32.0,-100.00,SSW,213,2.0,11.0,91,0.00,,,0.04,0.000000,,2013-11-03 01:52:00,
2013-11-03 02:21:00,33.0,31.0,-100.00,West,280,8.0,14.0,94,0.00,,,0.04,0.000000,,2013-11-03 02:21:00,
2013-11-03 02:32:00,33.0,31.0,-100.00,West,280,8.0,14.0,94,0.00,,,0.04,0.000000,,2013-11-03 02:32:00,
2013-11-03 02:43:00,33.0,31.0,-100.00,West,280,8.0,14.0,94,0.00,,,0.04,0.000000,,2013-11-03 02:43:00,
2013-11-03 02:52:00,33.0,31.0,-100.00,West,280,8.0,14.0,94,0.00,,,0.04,0.000000,,2013-11-03 02:52:00,
2013-11-03 03:22:00,32.0,30.0,-100.00,WSW,258,8.0,12.0,91,0.00,,,0.04,0.000000,,2013-11-03 03:22:00,
2013-11-03 03:33:00,32.0,30.0,-100.00,WSW,258,8.0,12.0,91,0.00,,,0.04,0.000000,,2013-11-03 03:33:00,
2013-11-03 03:44:00,32.0,30.0,-100.00,WSW,258,8.0,12.0,91,0.00,,,0.04,0.000000,,2013-11-03 03:44:00,
2013-11-03 03:54:00,32.0,30.0,-100.00,WSW,258,8.0,12.0,91,0.00,,,0.04,0.000000,,2013-11-03 03:54:00,
2013-11-03 04:23:00,31.0,28.0,-100.00,West,259,6.0,12.0,90,0.00,,,0.04,0.000000,,2013-11-03 04:23:00,
2013-11-03 04:34:00,31.0,28.0,-100.00,West,259,6.0,12.0,90,0.00,,,0.04,0.000000,,2013-11-03 04:34:00,
2013-11-03 04:44:00,31.0,28.0,-100.00,West,259,6.0,12.0,90,0.00,,,0.04,0.000000,,2013-11-03 04:44:00,
2013-11-03 04:52:00,31.0,28.0,-100.00,West,259,6.0,12.0,90,0.00,,,0.04,0.000000,,2013-11-03 04:52:00,
2013-11-03 05:23:00,30.0,25.0,-100.00,West,270,3.0,12.0,80,0.00,,,0.04,0.000000,,2013-11-03 05:23:00,
2013-11-03 05:34:00,30.0,25.0,-100.00,West,270,3.0,12.0,80,0.00,,,0.04,0.000000,,2013-11-03 05:34:00,
2013-11-03 05:43:00,30.0,25.0,-100.00,West,270,3.0,12.0,80,0.00,,,0.04,0.000000,,2013-11-03 05:43:00,
2013-11-03 05:53:00,30.0,25.0,-100.00,West,270,3.0,12.0,80,0.00,,,0.04,0.000000,,2013-11-03 05:53:00,
2013-11-03 06:23:00,30.0,23.0,-100.00,WNW,289,3.0,6.0,75,0.00,,,0.04,0.000000,,2013-11-03 06:23:00,
2013-11-03 06:32:00,30.0,23.0,-100.00,WNW,289,3.0,6.0,75,0.00,,,0.04,0.000000,,2013-11-03 06:32:00,
2013-11-03 06:43:00,30.0,23.0,-100.00,WNW,289,3.0,6.0,75,0.00,,,0.04,0.000000,,2013-11-03 06:43:00,
2013-11-03 06:52:00,30.0,23.0,-100.00,WNW,289,3.0,6.0,75,0.00,,,0.04,0.000000,,2013-11-03 06:52:00,
2013-11-03 07:22:00,29.0,25.0,-100.00,West,274,6.0,9.0,84,0.00,,,0.04,0.000000,,2013-11-03 07:22:00,
2013-11-03 07:32:00,29.0,25.0,-100.00,West,274,6.0,9.0,84,0.00,,,0.04,0.000000,,2013-11-03 07:32:00,
2013-11-03 07:42:00,29.0,25.0,-100.00,West,274,6.0,9.0,84,0.00,,,0.04,0.000000,,2013-11-03 07:42:00,
2013-11-03 07:52:00,29.0,25.0,-100.00,West,274,6.0,9.0,84,0.00,,,0.04,0.000000,,2013-11-03 07:52:00,
2013-11-03 08:21:00,29.0,25.0,-100.00,West,262,9.0,11.0,86,0.00,,,0.04,0.000000,,2013-11-03 08:21:00,
2013-11-03 08:32:00,29.0,25.0,-100.00,West,262,9.0,11.0,86,0.00,,,0.04,0.000000,,2013-11-03 08:32:00,
2013-11-03 08:42:00,29.0,25.0,-100.00,West,262,9.0,11.0,86,0.00,,,0.04,0.000000,,2013-11-03 08:42:00,
2013-11-03 08:52:00,29.0,25.0,-100.00,West,262,9.0,11.0,86,0.00,,,0.04,0.000000,,2013-11-03 08:52:00,
2013-11-03 09:22:00,28.0,25.0,-100.00,West,269,6.0,13.0,87,0.00,,,0.04,0.000000,,2013-11-03 09:22:00,
2013-11-03 09:32:00,28.0,25.0,-100.00,West,269,6.0,13.0,87,0.00,,,0.04,0.000000,,2013-11-03 09:32:00,
2013-11-03 09:42:00,28.0,25.0,-100.00,West,269,6.0,13.0,87,0.00,,,0.04,0.000000,,2013-11-03 09:42:00,
2013-11-03 09:53:00,28.0,25.0,-100.00,West,269,6.0,13.0,87,0.00,,,0.04,0.000000,,2013-11-03 09:53:00,
2013-11-03 10:23:00,28.0,24.0,-100.00,WSW,248,5.0,5.0,85,0.00,,,0.04,,,2013-11-03 10:23:00,
2013-11-03 10:32:00,28.0,24.0,-100.00,WSW,248,5.0,5.0,85,0.00,,,0.04,,,2013-11-03 10:32:00,
2013-11-03 10:42:00,28.0,24.0,-100.00,WSW,248,5.0,5.0,85,0.00,,,0.04,,,2013-11-03 10:42:00,
2013-11-03 10:52:00,28.0,24.0,-100.00,WSW,248,5.0,5.0,85,0.00,,,0.04,,,2013-11-03 10:52:00,
2013-11-03 11:22:00,29.0,25.0,-100.00,South,188,3.0,10.0,85,0.00,,,0.04,0.000000,,2013-11-03 11:22:00,
2013-11-03 11:33:00,29.0,25.0,-100.00,South,188,3.0,10.0,85,0.00,,,0.04,0.000000,,2013-11-03 11:33:00,
2013-11-03 11:43:00,29.0,25.0,-100.00,South,188,3.0,10.0,85,0.00,,,0.04,0.000000,,2013-11-03 11:43:00,
2013-11-03 11:52:00,29.0,25.0,-100.00,South,188,3.0,10.0,85,0.00,,,0.04,0.000000,,2013-11-03 11:52:00,
2013-11-03 12:22:00,30.0,25.0,-100.00,WSW,249,7.0,14.0,80,0.00,,,0.04,0.000000,,2013-11-03 12:22:00,
2013-11-03 12:31:00,30.0,25.0,-100.00,WSW,249,7.0,14.0,80,0.00,,,0.04,0.000000,,2013-11-03 12:31:00,
2013-11-03 12:41:00,30.0,25.0,-100.00,WSW,249,7.0,14.0,80,0.00,,,0.04,0.000000,,2013-11-03 12:41:00,
2013-11-03 12:52:00,30.0,25.0,-100.00,WSW,249,7.0,14.0,80,0.00,,,0.04,0.000000,,2013-11-03 12:52:00,
2013-11-03 13:21:00,29.0,25.0,-100.00,SSW,192,3.0,9.0,86,0.00,,,0.04,0.000000,,2013-11-03 13:21:00,
2013-11-03 13:32:00,29.0,25.0,-100.00,SSW,192,3.0,9.0,86,0.00,,,0.04,0.000000,,2013-11-03 13:32:00,
2013-11-03 13:42:00,29.0,25.0,-100.00,SSW,192,3.0,9.0,86,0.00,,,0.04,0.000000,,2013-11-03 13:42:00,
2013-11-03 13:52:00,29.0,25.0,-100.00,SSW,192,3.0,9.0,86,0.00,,,0.04,0.000000,,2013-11-03 13:52:00,
2013-11-03 14:22:00,29.0,25.0,-100.00,SW,236,6.0,9.0,85,0.00,,,0.04,0.000000,,2013-11-03 14:22:00,
2013-11-03 14:32:00,29.0,25.0,-100.00,SW,236,6.0,9.0,85,0.00,,,0.04,0.000000,,2013-11-03 14:32:00,
2013-11-03 14:42:00,29.0,25.0,-100.00,SW,236,6.0,9.0,85,0.00,,,0.04,0.000000,,2013-11-03 14:42:00,
2013-11-03 14:52:00,29.0,25.0,-100.00,SW,236,6.0,9.0,85,0.00,,,0.04,0.000000,,2013-11-03 14:52:00,
2013-11-03 15:22:00,30.0,24.0,-100.00,West,279,2.0,11.0,78,0.00,,,0.02,1.000000,,2013-11-03 15:22:00,
2013-11-03 15:32:00,30.0,24.0,-100.00,West,279,2.0,11.0,78,0.00,,,0.02,1.000000,,2013-11-03 15:32:00,
2013-11-03 15:43:00,30.0,24.0,-100.00,West,279,2.0,11.0,78,0.00,,,0.02,1.000000,,2013-11-03 15:43:00,
2013-11-03 15:53:00,30.0,24.0,-100.00,West,279,2.0,11.0,78,0.00,,,0.02,1.000000,,2013-11-03 15:53:00,
2013-11-03 16:23:00,33.0,26.0,-100.00,SW,228,5.0,7.0,76,0.00,,,0.01,61.000000,,2013-11-03 16:23:00,
2013-11-03 16:34:00,33.0,26.0,-100.00,SW,228,5.0,7.0,76,0.00,,,0.01,61.000000,,2013-11-03 16:34:00,
2013-11-03 16:43:00,33.0,26.0,-100.00,SW,228,5.0,7.0,76,0.00,,,0.01,61.000000,,2013-11-03 16:43:00,
2013-11-03 16:53:00,33.0,26.0,-100.00,SW,228,5.0,7.0,76,0.00,,,0.01,61.000000,,2013-11-03 16:53:00,
2013-11-03 17:22:00,36.0,30.0,-100.00,WSW,238,8.0,12.0,78,0.00,,,0.01,192.000000,,2013-11-03 17:22:00,
2013-11-03 17:33:00,36.0,30.0,-100.00,WSW,238,8.0,12.0,78,0.00,,,0.01,192.000000,,2013-11-03 17:33:00,
2013-11-03 17:43:00,36.0,30.0,-100.00,WSW,238,8.0,12.0,78,0.00,,,0.01,192.000000,,2013-11-03 17:43:00,
2013-11-03 17:52:00,36.0,30.0,-100.00,WSW,238,8.0,12.0,78,0.00,,,0.01,192.000000,,2013-11-03 17:52:00,
2013-11-03 18:23:00,35.0,24.0,-100.00,West,279,6.0,13.0,65,0.00,,,0.01,177.000000,,2013-11-03 18:23:00,
2013-11-03 18:32:00,35.0,24.0,-100.00,West,279,6.0,13.0,65,0.00,,,0.01,177.000000,,2013-11-03 18:32:00,
2013-11-03 18:42:00,35.0,24.0,-100.00,West,279,6.0,13.0,65,0.00,,,0.01,177.000000,,2013-11-03 18:42:00,
2013-11-03 18:52:00,35.0,24.0,-100.00,West,279,6.0,13.0,65,0.00,,,0.01,177.000000,,2013-11-03 18:52:00,
2013-11-03 19:22:00,39.0,25.0,-100.00,WNW,283,12.0,16.0,56,0.00,,,0.01,520.000000,,2013-11-03 19:22:00,
2013-11-03 19:33:00,39.0,25.0,-100.00,WNW,283,12.0,16.0,56,0.00,,,0.01,520.000000,,2013-11-03 19:33:00,
2013-11-03 19:42:00,39.0,25.0,-100.00,WNW,283,12.0,16.0,56,0.00,,,0.01,520.000000,,2013-11-03 19:42:00,
2013-11-03 19:53:00,39.0,25.0,-100.00,WNW,283,12.0,16.0,56,0.00,,,0.01,520.000000,,2013-11-03 19:53:00,
2013-11-03 20:22:00,38.0,24.0,-100.00,WNW,303,11.0,20.0,56,0.00,,,0.01,479.000000,,2013-11-03 20:22:00,
2013-11-03 20:32:00,38.0,24.0,-100.00,WNW,303,11.0,20.0,56,0.00,,,0.01,479.000000,,2013-11-03 20:32:00,
2013-11-03 20:42:00,38.0,24.0,-100.00,WNW,303,11.0,20.0,56,0.00,,,0.01,479.000000,,2013-11-03 20:42:00,
2013-11-03 20:52:00,38.0,24.0,-100.00,WNW,303,11.0,20.0,56,0.00,,,0.01,479.000000,,2013-11-03 20:52:00,
2013-11-03 21:22:00,38.0,24.0,-100.00,West,269,10.0,15.0,56,0.00,,,0.01,236.000000,,2013-11-03 21:22:00,
2013-11-03 21:34:00,38.0,24.0,-100.00,West,269,10.0,15.0,56,0.00,,,0.01,236.000000,,2013-11-03 21:34:00,
2013-11-03 21:43:00,38.0,24.0,-100.00,West,269,10.0,15.0,56,0.00,,,0.01,236.000000,,2013-11-03 21:43:00,
2013-11-03 21:54:00,38.0,24.0,-100.00,West,269,10.0,15.0,56,0.00,,,0.01,236.000000,,2013-11-03 21:54:00,
2013-11-03 22:22:00,37.0,24.0,-100.00,West,261,9.0,17.0,60,0.00,,,0.00,151.000000,,2013-11-03 22:22:00,
2013-11-03 22:33:00,37.0,24.0,-100.00,West,261,9.0,17.0,60,0.00,,,0.00,151.000000,,2013-11-03 22:33:00,
2013-11-03 22:43:00,37.0,24.0,-100.00,West,261,9.0,17.0,60,0.00,,,0.00,151.000000,,2013-11-03 22:43:00,
2013-11-03 22:52:00,37.0,24.0,-100.00,West,261,9.0,17.0,60,0.00,,,0.00,151.000000,,2013-11-03 22:52:00,
2013-11-03 23:23:00,37.0,23.0,-100.00,WNW,290,9.0,15.0,56,0.00,,,0.00,122.000000,,2013-11-03 23:23:00,
2013-11-03 23:34:00,37.0,23.0,-100.00,WNW,290,9.0,15.0,56,0.00,,,0.00,122.000000,,2013-11-03 23:34:00,
2013-11-03 23:42:00,37.0,23.0,-100.00,WNW,290,9.0,15.0,56,0.00,,,0.00,122.000000,,2013-11-03 23:42:00,
2013-11-03 23:53:00,37.0,23.0,-100.00,WNW,290,9.0,15.0,56,0.00,,,0.00,122.000000,,2013-11-03 23:53:00,